Location: Complexul Astronomic Baia Mare
(47.6577°N, 23.5639°E)
Time: 05:51:22
(UTC+03:00)

ISS - Pass Details

Date: 13 March 2017
Orbit: 399 x 409 km, 51.6° (Epoch: 30 March)

Event Time Altitude Azimuth Distance (km) Brightness Sun altitude
Exits shadow 06:06:34 - 292° (WNW) 1,694 -1.2 -6.9°
Reaches altitude 10° 06:07:06 10° 295° (WNW) 1,480 -1.5 -6.9°
Maximum altitude 06:10:18 43° 8° (N) 591 -2.9 -6.3°
Drops below altitude 10° 06:13:29 10° 82° (E) 1,479 0.9 -5.8°
Sets 06:15:38 0° 89° (E) 2,340 3.1 -5.4°
